Location: Apeadero de Los Molinos-Guadarrama
(40.7091°N, 4.0689°W)
Time: 12:48:29
(UTC+00:00)

USA 308 - Pass Details

Date: 14 May 2021
Orbit: 568 x 576 km, 54.0° (Epoch: 10 May)

Event Time Altitude Azimuth Distance (km) Brightness Sun altitude
Rises 21:25:51 0° 310° (NW) 2,784 8.0 -19.0°
Reaches altitude 10° 21:28:06 10° 311° (NW) 1,884 6.8 -19.2°
Maximum altitude 21:32:24 85° 38° (NE) 581 2.8 -19.8°
Enters shadow 21:33:22 53° 124° (SE) 706 2.9 -19.9°
